Location: Davayat
(45.9471°N, 3.1105°E)
Time: 22:19:07
(UTC+00:00)

Meteor 2-12 Rocket - Pass Details

Date: 29 April 2021
Orbit: 935 x 958 km, 82.5° (Epoch: 16 May)

Event Time Altitude Azimuth Distance (km) Brightness Sun altitude
Rises 21:03:39 0° 5° (N) 3,623 8.1 -19.3°
Reaches altitude 10° 21:07:56 10° 34° (NNE) 2,667 7.0 -19.8°
Maximum altitude 21:10:27 13° 58° (ENE) 2,476 6.5 -20.0°
Enters shadow 21:12:37 11° 80° (E) 2,611 6.5 -20.3°
